User: anonymous   Login
Location: Goheenville
(40.9070°N, 79.3720°W)
Time: 00:20:29
(UTC-04:00)
Language:

Cosmos 1633 - Orbit

View from above orbital plane
View from above orbital plane
View from above satellite
View from above satellite

Ground track
Ground track

The orbit data is extracted from the following two-line orbital elements,

1 15592U 85020A   16182.80949990  .00001381  00000-0  50581-4 0  9999
2 15592  82.5393 310.9926 0013640 345.2085  14.8753 15.27063549710643
Epoch (UTC): 30 June 2016 19:25:40
Eccentricity: 0.0013640
inclination: 82.5393°
perigee height: 475 km
apogee height: 494 km
right ascension of ascending node: 310.9926°
argument of perigee: 345.2085°
revolutions per day: 15.27063549
mean anomaly at epoch: 14.8753°
orbit number at epoch: 71064

The dashed part of the orbit path shows where the satellite is in the earth's shadow,  

DLR